Location: Northcutt
(34.7304°N, 84.4305°W)
Time: 04:36:19
(UTC+00:00)

Vanguard 2 - Pass Details

Date: 08 October 2022
Orbit: 553 x 2933 km, 32.9° (Epoch: 05 December)

Event Time Altitude Azimuth Distance (km) Brightness Sun altitude
Rises 20:21:35 0° 277° (W) 4,918 12.3 31.7°
Reaches altitude 10° 20:24:21 10° 275° (W) 4,196 12.1 31.3°
Maximum altitude 20:36:39 76° 193° (SSW) 2,555 10.8 29.2°
Drops below altitude 10° 20:54:16 10° 112° (ESE) 5,755 11.7 26.1°
Sets 20:58:49 0° 111° (ESE) 6,767 12.0 25.2°
